CW9451 Weather Reports


Display with metric or nautical units.
time (UTC)temp
F
wind
direction
speed
MPH
gust
MPH
rain 1hr
in
rain 24hr
in
rain mn
in
humidity
%
barometer
mb
20260504232904 62 0.0 0.0 0.00 0.00 0.00 10 1014.2
20260504231909 63 0.0 0.0 0.00 0.00 0.00 10 1014.5
20260504225904 63 0.0 0.0 0.00 0.00 0.00 10 1014.8
20260504224903 63 0.0 0.0 0.00 0.00 0.00 10 1014.8
20260504223908 63 0.0 0.0 0.00 0.00 0.00 10 1014.9
20260504221904 63 0.0 0.0 0.00 0.00 0.00 10 1014.9
20260504220903 63 0.0 0.0 0.00 0.00 0.00 10 1014.8
20260504215903 63 0.0 0.0 0.00 0.00 0.00 10 1014.9
20260504214908 63 0.0 0.0 0.00 0.00 0.00 10 1015.0
20260504212905 63 0.0 0.0 0.00 0.00 0.00 10 1015.1
20260504211910 63 0.0 0.0 0.00 0.00 0.00 10 1015.0
20260504205904 64 0.0 0.0 0.00 0.00 0.00 10 1015.5
20260504204904 64 0.0 0.0 0.00 0.00 0.00 10 1015.4
20260504203908 64 0.0 0.0 0.00 0.00 0.00 10 1015.5
20260504201909 64 0.0 0.0 0.00 0.00 0.00 10 1015.7
20260504195904 64 0.0 0.0 0.00 0.00 0.00 10 1015.4
20260504194904 65 0.0 0.0 0.00 0.00 0.00 10 1015.5
20260504193904 65 0.0 0.0 0.00 0.00 0.00 10 1015.4
20260504192904 65 0.0 0.0 0.00 0.00 0.00 10 1015.3
20260504191904 65 0.0 0.0 0.00 0.00 0.00 10 1015.2
20260504190909 65 0.0 0.0 0.00 0.00 0.00 10 1015.2
20260504184904 65 0.0 0.0 0.00 0.00 0.00 99 1015.2
20260504183904 65 0.0 0.0 0.00 0.00 0.00 10 1015.4
20260504182904 64 0.0 0.0 0.00 0.00 0.00 98 1015.0
20260504181904 66 0.0 0.0 0.00 0.00 0.00 93 1014.7
20260504180903 66 0.0 0.0 0.00 0.00 0.00 88 1014.6
20260504175904 66 0.0 0.0 0.00 0.00 0.00 84 1014.2
20260504174904 67 0.0 0.0 0.00 0.00 0.00 83 1014.0
20260504173904 67 0.0 0.0 0.00 0.00 0.00 81 1013.5
20260504172904 68 0.0 0.0 0.00 0.00 0.00 78 1013.4
20260504171904 69 0.0 0.0 0.00 0.00 0.00 81 1013.4
20260504170904 69 0.0 0.0 0.00 0.00 0.00 80 1013.2
20260504150905 74 0.0 0.0 0.00 0.00 0.00 64 1012.3
20260504140904 79 0.0 0.0 0.00 0.00 0.00 57 1012.7
20260504081903 63 0.0 0.0 0.00 0.00 0.00 82 1016.8
20260504080904 63 0.0 0.0 0.00 0.00 0.00 83 1016.9
20260504045909 59 0.0 0.0 0.00 0.00 0.00 86 1015.7
20260504042904 58 0.0 0.0 0.00 0.00 0.00 85 1015.4
20260504041905 58 0.0 0.0 0.00 0.00 0.00 84 1015.4
20260504040904 58 0.0 0.0 0.00 0.00 0.00 84 1015.2
20260504035904 58 0.0 0.0 0.00 0.00 0.00 84 1015.2
20260504034904 59 0.0 0.0 0.00 0.00 0.00 84 1015.1
20260504033904 58 0.0 0.0 0.00 0.00 0.00 83 1015.0
20260504032905 58 0.0 0.0 0.00 0.00 0.00 82 1014.9
20260504031904 59 0.0 0.0 0.00 0.00 0.00 82 1014.8
20260504030904 59 0.0 0.0 0.00 0.00 0.00 82 1014.8
20260504025909 59 0.0 0.0 0.00 0.00 0.00 82 1014.7
20260504022903 60 0.0 0.0 0.00 0.00 0.00 83 1015.0
20260504021903 60 0.0 0.0 0.00 0.00 0.00 83 1015.0
20260504020904 60 0.0 0.0 0.00 0.00 0.00 82 1015.0
20260504015905 60 0.0 0.0 0.00 0.00 0.00 81 1015.0
20260504014904 60 0.0 0.0 0.00 0.00 0.00 80 1014.9
20260504013904 60 0.0 0.0 0.00 0.00 0.00 79 1014.6
20260504012904 60 0.0 0.0 0.00 0.00 0.00 79 1014.4
20260504011904 60 0.0 0.0 0.00 0.00 0.00 79 1014.2
20260504010904 60 0.0 0.0 0.00 0.00 0.00 78 1014.2
20260504005909 60 0.0 0.0 0.00 0.00 0.00 78 1014.3
20260504003909 61 0.0 0.0 0.00 0.00 0.00 77 1014.2
20260504001908 62 0.0 0.0 0.00 0.00 0.00 78 1014.1
20260503235903 62 0.0 0.0 0.00 0.00 0.00 78 1014.2
20260503234904 63 0.0 0.0 0.00 0.00 0.00 78 1014.2